Regional Weather Roundup
Issued by NWS Memphis, TN

Home | Current Version | Previous Version | Text Only | Print | Product List | Glossary On
Versions: 1 2 3 4 5 6 7 8 9 10 11 12 13 14 15 16 17 18 19 20 21 22 23 24 25 26 27 28 29 30 31 32 33 34 35 36 37 38 39 40 41 42 43 44 45 46 47 48 49 50
000
ASUS44 KMEG 312300
RWRMEG
MEMPHIS CWA HOURLY WEATHER ROUNDUP
NATIONAL WEATHER SERVICE MEMPHIS TN
600 PM CDT MON AUG 31 2015

...WEST TENNESSEE...

CITY           SKY/WX    TMP DP  RH WIND       PRES   REMARKS
MEMPHIS INTL   MOSUNNY   89  68  49 S8        30.03F HX  93
NWS MEMPHIS      N/A     88 N/A N/A MISG        N/A
JACKSON        MOSUNNY   84  69  60 CALM      30.06S
LEXINGTON      SUNNY     84  64  51 CALM      30.06S
DYERSBURG      SUNNY     84  66  54 SE3       30.06S
UNION CITY     SUNNY     86  68  54 SE5       30.04S
PARIS          SUNNY     82  66  57 CALM      30.07S


...EASTERN ARKANSAS...

CITY           SKY/WX    TMP DP  RH WIND       PRES   REMARKS
JONESBORO      MOSUNNY   87  69  54 SE7       30.03R HX  91
WEST MEMPHIS   SUNNY     87  68  52 E7        30.02S HX  90
BATESVILLE     PTSUNNY   82  73  74 CALM      30.03S
WALNUT RIDGE   PTSUNNY   81  72  74 W3        30.03S
BLYTHEVILLE    SUNNY     87  70  56 SE3       30.04S HX  92
SEARCY         PTSUNNY   91  71  51 SE7       30.02S HX  97
STUTTGART      SUNNY     91  66  43 E8        30.01S HX  94
PINE BLUFF     MOSUNNY   85  69  58 E8        29.99S
MONTICELLO     PTSUNNY   87  71  58 CALM      29.99S HX  93


...NORTH MISSISSIPPI...

CITY           SKY/WX    TMP DP  RH WIND       PRES   REMARKS
TUPELO         SUNNY     85  65  51 NE8       30.05R
OXFORD         SUNNY     84  66  54 E6        30.06S
OLIVE BRANCH   MOSUNNY   88  68  51 E6        30.05S HX  91
TUNICA         SUNNY     88  70  55 SE5       30.03S HX  92
GREENWOOD      PTSUNNY   90  66  45 NE8       30.00S HX  92
COLUMBUS       MOSUNNY   85  68  55 N8        30.04S
STARKVILLE     FAIR      86  64  48 NE8       30.04S
GOLDEN TRIANGL MOSUNNY   86  64  48 NE9       30.04S


...SOUTHEAST MISSOURI...

CITY           SKY/WX    TMP DP  RH WIND       PRES   REMARKS
WEST PLAINS    SUNNY     86  66  51 VRB6      30.06F
POPLAR BLUFF   SUNNY     86  72  62 SE7       30.03R HX  92
CAPE GIRARDEAU MOSUNNY   82  72  71 S5        30.04S


...NORTHWEST ALABAMA...

CITY           SKY/WX    TMP DP  RH WIND       PRES   REMARKS
MUSCLE SHOALS  SUNNY     84  66  54 CALM      30.08S


...MIDDLE TENNESSEE...

CITY           SKY/WX    TMP DP  RH WIND       PRES   REMARKS
NASHVILLE      MOSUNNY   87  60  40 E5        30.08S
CLARKSVILLE    PTSUNNY   87  64  46 VRB3      30.06S
COLUMBIA       SUNNY     84  66  54 CALM      30.07R


...WESTERN KENTUCKY...

CITY           SKY/WX    TMP DP  RH WIND       PRES   REMARKS
PADUCAH        SUNNY     85  68  56 SE5       30.04F
FORT CAMPBELL  SUNNY     86  66  51 SW7       30.06S


...CENTRAL ARKANSAS...

CITY           SKY/WX    TMP DP  RH WIND       PRES   REMARKS
LITTLE ROCK    MOSUNNY   90  65  43 SE5       30.00R HX  92


SKY/WX REPORTED AS FAIR MEANS FEW OR NO CLOUDS BELOW
12 THOUSAND FEET.



USA.gov is the U.S. government's official web portal to all federal, state and local government web resources and services.